QPF
0.00 0.00 0.00 0.00 0.00 0.00 0.00 0.00 0.00 0.00 0.00 0.00 0.00 0.00 0.00 0.00 0.00 0.00 0.01 0.00 0.00 0.00 0.00 0.00 0.00 0.00 0.00 0.00 0.00 0.00 0.00 0.00 0.01 0.01 0.01 0.00 0.00 0.00 0.00 0.00 0.00 0.01 0.03
0.00 0.00 0.00 0.00 0.00 0.00 0.00 0.00 0.00 0.00 0.00 0.00 0.00 0.00 0.00 0.00 0.00 0.00 0.00 0.00 0.00 0.00 0.00 0.00 0.00 0.00 0.00 0.00 0.00 0.00 0.00 0.00 0.00 0.00 0.00 0.00 0.00 0.00 0.00 0.00 0.00 0.01 0.02
0.00 0.00 0.00 0.00 0.00 0.00 0.00 0.00 0.00 0.00 0.00 0.00 0.00 0.00 0.00 0.00 0.00 0.00 0.00 0.00 0.00 0.00 0.00 0.00 0.00 0.00 0.00 0.00 0.00 0.00 0.00 0.00 0.00 0.00 0.00 0.00 0.00 0.00 0.00 0.00 0.00 0.00 0.00
0.00 0.00 0.00 0.00 0.00 0.00 0.00 0.00 0.00 0.00 0.00 0.00 0.00 0.00 0.00 0.00 0.00 0.00 0.00 0.00 0.00 0.00 0.00 0.00 0.00 0.00 0.00 0.00 0.00 0.00 0.00 0.00 0.00 0.00 0.00 0.00 0.00 0.00 0.00 0.00 0.00 0.00 0.00
0.00 0.00 0.00 0.00 0.00 0.00 0.00 0.00 0.00 0.00 0.00 0.00 0.00 0.00 0.00 0.00 0.00 0.00 0.00 0.00 0.00 0.00 0.00 0.00 0.00 0.00 0.00 0.00 0.00 0.00 0.00 0.00 0.00 0.00 0.00 0.00 0.00 0.00 0.00 0.00 0.00 0.00 0.00
0.00 0.00 0.00 0.00 0.00 0.00 0.00 0.00 0.00 0.00 0.00 0.00 0.00 0.00 0.00 0.00 0.00 0.00 0.00 0.00 0.00 0.00 0.00 0.00 0.00 0.00 0.00 0.00 0.00 0.00 0.00 0.00 0.00 0.00 0.00 0.00 0.00 0.00 0.00 0.00 0.00 0.00 0.00
0.00 0.00 0.00 0.00 0.00 0.00 0.00 0.00 0.00 0.00 0.00 0.00 0.00 0.01 0.00 0.00 0.00 0.00 0.00 0.00 0.00 0.00 0.00 0.00 0.00 0.00 0.00 0.00 0.00 0.00 0.00 0.00 0.00 0.00 0.00 0.00 0.00 0.00 0.00 0.00 0.01 0.01 0.00
0.00 0.00 0.00 0.00 0.00 0.00 0.00 0.00 0.00 0.00 0.00 0.00 0.00 0.00 0.01 0.00 0.00 0.00 0.00 0.00 0.00 0.00 0.00 0.00 0.00 0.00 0.00 0.00 0.00 0.00 0.00 0.00 0.00 0.00 0.00 0.00 0.00 0.00 0.00 0.00 0.00 0.00 0.00
0.00 0.00 0.00 0.00 0.00 0.00 0.00 0.00 0.00 0.00 0.00 0.00 0.00 0.00 0.00 0.00 0.00 0.00 0.00 0.00 0.00 0.00 0.00 0.00 0.00 0.00 0.00 0.00 0.00 0.00 0.00 0.00 0.00 0.00 0.00 0.00 0.00 0.00 0.00 0.00 0.00 0.00 0.00
0.00 0.00 0.00 0.00 0.00 0.00 0.00 0.00 0.00 0.00 0.00 0.00 0.00 0.00 0.01 0.00 0.00 0.00 0.00 0.00 0.00 0.00 0.00 0.00 0.00 0.00 0.00 0.00 0.00 0.00 0.00 0.00 0.00 0.00 0.00 0.00 0.00 0.00 0.00 0.00 0.00 0.00 0.00
0.00 0.00 0.00 0.00 0.00 0.00 0.00 0.00 0.00 0.00 0.00 0.00 0.00 0.00 0.01 0.00 0.00 0.00 0.00 0.00 0.00 0.00 0.00 0.00 0.00 0.00 0.00 0.00 0.00 0.00 0.00 0.00 0.00 0.00 0.00 0.00 0.00 0.00 0.00 0.00 0.00 0.00 0.00
0.00 0.00 0.00 0.00 0.00 0.00 0.00 0.00 0.00 0.00 0.00 0.00 0.00 0.01 0.01 0.00 0.00 0.00 0.00 0.00 0.00 0.00 0.00 0.00 0.00 0.00 0.00 0.00 0.00 0.00 0.00 0.00 0.00 0.00 0.00 0.00 0.00 0.00 0.00 0.00 0.00 0.00 0.00
0.00 0.00 0.00 0.00 0.00 0.00 0.00 0.00 0.00 0.00 0.00 0.00 0.00 0.00 0.00 0.00 0.00 0.00 0.00 0.00 0.00 0.00 0.00 0.00 0.00 0.00 0.00 0.00 0.00 0.00 0.00 0.00 0.00 0.00 0.00 0.00 0.00 0.00 0.00 0.00 0.00 0.00 0.00
0.00 0.00 0.00 0.00 0.00 0.00 0.00 0.00 0.00 0.00 0.00 0.00 0.00 0.00 0.00 0.00 0.00 0.00 0.00 0.00 0.00 0.00 0.00 0.00 0.00 0.00 0.00 0.00 0.00 0.00 0.00 0.00 0.00 0.00 0.00 0.00 0.00 0.00 0.00 0.00 0.00 0.00 0.00
0.00 0.00 0.00 0.00 0.00 0.00 0.00 0.00 0.00 0.00 0.00 0.00 0.00 0.00 0.00 0.00 0.00 0.00 0.00 0.00 0.00 0.00 0.00 0.00 0.00 0.00 0.00 0.00 0.00 0.00 0.00 0.00 0.00 0.00 0.00 0.00 0.00 0.00 0.00 0.00 0.00 0.00 0.00
0.00 0.00 0.00 0.00 0.00 0.00 0.00 0.00 0.00 0.00 0.00 0.00 0.00 0.00 0.00 0.00 0.00 0.00 0.00 0.00 0.00 0.00 0.00 0.00 0.00 0.00 0.00 0.00 0.00 0.00 0.00 0.00 0.00 0.00 0.00 0.00 0.00 0.00 0.00 0.00 0.00 0.00 0.00
0.00 0.00 0.00 0.00 0.00 0.00 0.00 0.00 0.00 0.00 0.00 0.00 0.00 0.00 0.00 0.00 0.00 0.00 0.00 0.00 0.00 0.00 0.00 0.00 0.00 0.00 0.00 0.00 0.00 0.00 0.00 0.00 0.00 0.00 0.00 0.00 0.00 0.00 0.00 0.00 0.00 0.00 0.00
0.00 0.00 0.00 0.00 0.00 0.00 0.00 0.00 0.00 0.00 0.00 0.00 0.00 0.00 0.00 0.01 0.00 0.00 0.00 0.00 0.00 0.00 0.00 0.00 0.00 0.00 0.00 0.00 0.00 0.00 0.00 0.00 0.00 0.00 0.00 0.00 0.00 0.00 0.00 0.00 0.00 0.00 0.00
0.00 0.00 0.00 0.00 0.00 0.00 0.00 0.00 0.00 0.00 0.00 0.00 0.00 0.00 0.01 0.02 0.02 0.01 0.00 0.00 0.00 0.00 0.00 0.00 0.00 0.00 0.00 0.00 0.00 0.00 0.00 0.00 0.00 0.00 0.00 0.00 0.00 0.00 0.00 0.00 0.00 0.00 0.00
0.00 0.00 0.00 0.00 0.00 0.00 0.00 0.00 0.00 0.00 0.00 0.00 0.00 0.00 0.00 0.00 0.01 0.01 0.01 0.01 0.01 0.00 0.00 0.00 0.00 0.00 0.00 0.00 0.00 0.00 0.00 0.00 0.00 0.00 0.00 0.00 0.00 0.00 0.00 0.00 0.00 0.00 0.00
0.00 0.00 0.00 0.00 0.00 0.00 0.00 0.00 0.00 0.00 0.00 0.00 0.00 0.00 0.00 0.00 0.00 0.02 0.02 0.02 0.02 0.01 0.00 0.00 0.00 0.00 0.00 0.00 0.00 0.00 0.00 0.00 0.00 0.00 0.00 0.00 0.00 0.00 0.00 0.00 0.00 0.00 0.00
0.00 0.00 0.00 0.00 0.00 0.00 0.00 0.00 0.00 0.00 0.00 0.00 0.00 0.00 0.00 0.00 0.00 0.00 0.01 0.00 0.00 0.00 0.00 0.00 0.00 0.00 0.00 0.00 0.00 0.00 0.00 0.00 0.00 0.00 0.00 0.00 0.00 0.00 0.00 0.00 0.00 0.00 0.00
0.00 0.00 0.00 0.00 0.00 0.00 0.00 0.00 0.00 0.00 0.00 0.00 0.00 0.00 0.00 0.00 0.00 0.00 0.00 0.00 0.00 0.00 0.00 0.00 0.00 0.00 0.00 0.00 0.00 0.00 0.00 0.00 0.00 0.00 0.00 0.00 0.00 0.00 0.00 0.00 0.00 0.00 0.00
0.00 0.00 0.00 0.00 0.00 0.00 0.00 0.00 0.00 0.00 0.00 0.00 0.00 0.00 0.00 0.00 0.00 0.00 0.00 0.00 0.00 0.00 0.00 0.00 0.00 0.00 0.00 0.00 0.00 0.00 0.00 0.00 0.00 0.00 0.00 0.00 0.00 0.00 0.00 0.00 0.00 0.00 0.00
0.00 0.00 0.00 0.00 0.00 0.00 0.00 0.00 0.00 0.00 0.00 0.00 0.00 0.00 0.00 0.00 0.00 0.00 0.00 0.00 0.00 0.00 0.00 0.00 0.00 0.00 0.00 0.00 0.00 0.00 0.00 0.00 0.00 0.00 0.00 0.00 0.00 0.00 0.00 0.00 0.00 0.00 0.00
0.00 0.00 0.00 0.00 0.00 0.00 0.00 0.00 0.00 0.00 0.00 0.00 0.00 0.00 0.00 0.00 0.00 0.00 0.00 0.00 0.00 0.00 0.00 0.00 0.00 0.00 0.00 0.00 0.00 0.00 0.00 0.00 0.00 0.00 0.00 0.00 0.00 0.00 0.00 0.00 0.00 0.00 0.00
MSLP
1015.39 1015.17 1015.20 1015.42 1015.71 1016.01 1016.25 1016.51 1016.79 1017.07 1017.11 1017.21 1017.31 1017.35 1017.36 1017.45 1017.58 1017.65 1017.74 1017.90 1017.88 1018.00 1018.12 1018.28 1018.37 1018.42 1018.50 1018.54 1018.49 1018.47 1018.45 1018.30 1018.33 1018.31 1018.29 1018.27 1018.30 1018.36 1018.33 1018.31 1018.20 1018.23 1018.03
1014.47 1015.15 1015.26 1015.46 1015.70 1016.05 1016.38 1016.64 1016.89 1017.08 1017.23 1017.34 1017.49 1017.59 1017.65 1017.73 1017.85 1017.95 1018.08 1018.26 1018.35 1018.47 1018.51 1018.55 1018.66 1018.75 1018.78 1018.81 1018.84 1018.85 1018.74 1018.71 1018.69 1018.73 1018.75 1018.71 1018.75 1018.75 1018.71 1018.65 1018.52 1018.48 1018.38
1014.66 1015.10 1015.52 1015.77 1015.95 1016.15 1016.49 1016.80 1016.93 1017.05 1017.25 1017.44 1017.66 1017.80 1017.95 1018.06 1018.14 1018.29 1018.41 1018.53 1018.71 1018.85 1018.93 1018.91 1019.08 1019.17 1019.09 1019.15 1019.10 1019.08 1019.07 1018.95 1018.87 1018.87 1018.95 1019.21 1019.15 1018.99 1019.02 1018.97 1018.92 1018.87 1018.72
1014.63 1015.02 1015.49 1015.85 1016.13 1016.42 1016.67 1016.89 1017.08 1017.32 1017.50 1017.64 1017.74 1017.85 1018.06 1018.23 1018.37 1018.51 1018.64 1018.86 1018.98 1019.09 1019.20 1019.36 1019.47 1019.51 1019.59 1019.56 1019.46 1019.43 1019.42 1019.29 1019.18 1019.09 1019.27 1019.39 1019.34 1019.13 1019.12 1019.19 1019.27 1019.27 1019.23
1014.87 1015.00 1015.36 1015.80 1016.16 1016.46 1016.74 1017.02 1017.27 1017.44 1017.56 1017.73 1017.91 1018.10 1018.21 1018.32 1018.54 1018.72 1018.90 1019.16 1019.27 1019.37 1019.52 1019.59 1019.70 1019.76 1019.87 1019.82 1019.81 1019.79 1019.69 1019.64 1019.61 1019.57 1019.61 1019.64 1019.54 1019.39 1019.30 1019.36 1019.53 1019.61 1019.61
1015.09 1015.21 1015.40 1015.71 1016.07 1016.46 1016.83 1017.04 1017.25 1017.47 1017.67 1017.81 1017.98 1018.15 1018.31 1018.41 1018.65 1018.90 1019.17 1019.34 1019.48 1019.77 1019.92 1019.96 1020.03 1020.11 1020.12 1020.17 1020.10 1020.04 1019.90 1019.94 1020.05 1020.08 1020.08 1019.98 1019.75 1019.61 1019.53 1019.49 1019.66 1019.78 1019.87
1015.29 1015.33 1015.53 1015.77 1016.01 1016.31 1016.64 1016.96 1017.29 1017.49 1017.64 1017.79 1017.95 1018.09 1018.27 1018.56 1018.90 1019.15 1019.32 1019.42 1019.56 1019.81 1020.12 1020.19 1020.31 1020.41 1020.44 1020.47 1020.39 1020.27 1020.15 1020.29 1020.50 1020.54 1020.50 1020.39 1020.11 1019.95 1019.73 1019.67 1019.83 1019.89 1019.98
1015.15 1015.32 1015.50 1015.69 1015.83 1016.00 1016.30 1016.67 1016.98 1017.31 1017.59 1017.77 1017.95 1018.17 1018.41 1018.67 1019.01 1019.29 1019.48 1019.57 1019.66 1019.90 1020.14 1020.31 1020.52 1020.63 1020.72 1020.73 1020.63 1020.56 1020.44 1020.60 1020.75 1020.79 1020.78 1020.62 1020.35 1020.30 1020.27 1020.22 1020.16 1020.24 1020.31
1015.28 1015.45 1015.57 1015.75 1015.96 1016.18 1016.40 1016.63 1016.92 1017.28 1017.56 1017.78 1017.98 1018.23 1018.50 1018.79 1019.03 1019.29 1019.50 1019.61 1019.71 1019.99 1020.30 1020.50 1020.67 1020.82 1020.91 1020.94 1020.86 1020.80 1020.80 1020.89 1021.00 1021.13 1020.92 1020.89 1020.65 1020.57 1020.54 1020.53 1020.53 1020.54 1020.66
1015.46 1015.36 1015.48 1015.60 1015.91 1016.22 1016.39 1016.61 1016.98 1017.31 1017.57 1017.79 1018.01 1018.25 1018.53 1018.88 1019.14 1019.43 1019.63 1019.75 1019.89 1020.10 1020.37 1020.69 1020.95 1021.09 1021.14 1021.19 1021.17 1021.09 1021.11 1021.18 1021.33 1021.41 1021.29 1021.18 1020.85 1020.83 1020.78 1020.79 1020.63 1020.65 1020.76
1015.68 1015.57 1015.45 1015.61 1015.70 1015.84 1016.21 1016.59 1016.94 1017.25 1017.52 1017.78 1018.05 1018.33 1018.63 1019.00 1019.30 1019.52 1019.73 1019.94 1020.15 1020.40 1020.58 1020.84 1021.07 1021.20 1021.42 1021.54 1021.46 1021.45 1021.41 1021.62 1021.62 1021.65 1021.58 1021.22 1021.04 1021.00 1020.90 1020.94 1020.94 1020.82 1020.87
1016.27 1016.13 1016.07 1015.75 1015.77 1016.00 1016.19 1016.42 1016.76 1016.89 1017.23 1017.55 1017.85 1018.16 1018.50 1018.77 1019.11 1019.51 1019.80 1019.92 1020.14 1020.46 1020.75 1021.03 1021.27 1021.48 1021.78 1021.91 1021.86 1021.78 1021.79 1021.80 1021.81 1021.74 1021.68 1021.47 1021.21 1021.04 1020.91 1021.00 1020.99 1020.85 1020.93
1016.51 1016.11 1015.91 1016.05 1016.00 1015.97 1015.96 1016.24 1016.65 1017.09 1017.15 1017.27 1017.64 1018.01 1018.34 1018.85 1019.17 1019.65 1019.91 1020.26 1020.45 1020.55 1020.83 1021.09 1021.52 1022.06 1022.32 1022.42 1022.28 1022.09 1022.02 1022.02 1022.04 1022.00 1021.84 1021.58 1021.39 1021.14 1021.02 1020.95 1020.91 1020.78 1021.04
1017.28 1016.95 1016.50 1016.01 1015.73 1015.91 1016.08 1016.11 1016.37 1016.80 1017.24 1017.41 1017.74 1018.06 1018.32 1018.84 1019.28 1019.80 1020.11 1020.43 1020.75 1020.98 1021.24 1021.37 1021.72 1022.14 1022.46 1022.59 1022.56 1022.42 1022.31 1022.29 1022.31 1022.24 1022.10 1021.81 1021.56 1021.33 1020.96 1020.86 1020.90 1020.93 1021.00
1018.07 1017.62 1016.97 1016.34 1015.77 1015.44 1015.80 1016.22 1016.44 1016.60 1016.96 1017.36 1017.72 1018.21 1018.64 1018.74 1019.07 1019.62 1020.01 1020.36 1020.67 1021.10 1021.46 1021.79 1021.99 1022.14 1022.45 1022.63 1022.68 1022.71 1022.65 1022.55 1022.45 1022.39 1022.30 1022.02 1021.80 1021.51 1021.06 1020.85 1020.89 1020.86 1020.92
1018.95 1018.15 1017.48 1016.58 1015.79 1015.47 1015.69 1015.99 1016.37 1016.71 1016.99 1017.30 1017.66 1018.11 1018.49 1018.71 1019.02 1019.32 1019.87 1020.19 1020.51 1020.77 1021.30 1021.69 1022.05 1022.44 1022.66 1022.78 1022.83 1022.80 1022.78 1022.73 1022.64 1022.50 1022.32 1022.13 1021.79 1021.49 1021.19 1020.91 1020.85 1020.89 1020.96
1019.74 1018.97 1017.98 1017.09 1016.23 1015.65 1015.81 1016.16 1016.62 1016.74 1017.07 1017.50 1017.71 1017.96 1018.25 1018.50 1018.72 1018.90 1019.51 1020.13 1020.32 1020.35 1020.96 1021.61 1022.01 1022.31 1022.64 1022.84 1023.00 1022.97 1022.92 1022.81 1022.67 1022.50 1022.34 1022.19 1021.99 1021.68 1021.31 1020.97 1020.79 1020.77 1020.71
1020.32 1019.59 1018.83 1017.99 1017.05 1016.37 1016.36 1016.44 1016.80 1017.32 1017.67 1017.82 1017.97 1018.00 1018.12 1018.30 1018.65 1019.09 1019.50 1019.81 1019.92 1020.48 1020.75 1021.31 1021.90 1022.34 1022.49 1022.67 1022.79 1022.90 1022.97 1022.88 1022.75 1022.65 1022.53 1022.37 1022.19 1021.94 1021.65 1021.28 1021.04 1020.82 1020.73
1021.14 1020.31 1019.43 1018.71 1018.08 1017.50 1017.14 1017.28 1017.62 1018.02 1018.25 1018.42 1018.43 1018.47 1018.45 1018.51 1018.69 1018.97 1019.33 1019.59 1019.91 1020.30 1020.77 1021.18 1021.94 1022.34 1022.61 1022.89 1023.02 1022.99 1022.91 1022.84 1022.71 1022.52 1022.53 1022.47 1022.37 1022.16 1021.98 1021.67 1021.39 1021.18 1020.86
1021.79 1021.23 1020.57 1019.83 1019.00 1018.37 1018.18 1018.21 1018.72 1019.20 1019.52 1019.55 1019.70 1019.62 1019.22 1019.10 1019.10 1019.27 1019.44 1019.73 1020.02 1020.36 1020.94 1021.28 1021.76 1022.29 1022.71 1022.88 1023.06 1023.14 1023.14 1023.03 1022.77 1022.57 1022.44 1022.31 1022.21 1022.14 1022.07 1021.90 1021.66 1021.39 1021.14
1022.32 1021.67 1021.30 1020.79 1020.59 1019.68 1019.16 1019.49 1019.84 1020.63 1021.04 1021.04 1020.88 1020.92 1020.52 1020.29 1020.06 1020.08 1020.20 1020.35 1020.52 1020.80 1021.07 1021.51 1021.95 1022.34 1022.65 1022.94 1023.31 1023.15 1022.85 1022.54 1022.56 1022.48 1022.43 1022.25 1022.02 1021.91 1022.01 1022.08 1021.95 1021.73 1021.50
1023.88 1023.34 1022.76 1022.27 1021.71 1021.31 1021.20 1021.35 1021.58 1021.75 1022.21 1022.47 1022.31 1022.24 1022.17 1021.90 1021.53 1021.14 1021.03 1021.11 1021.27 1021.55 1021.83 1022.07 1022.18 1022.51 1022.70 1022.83 1023.24 1023.78 1023.33 1022.54 1022.24 1021.97 1022.13 1022.20 1022.13 1022.09 1021.98 1021.84 1021.92 1021.87 1021.76
1024.66 1024.16 1023.61 1023.23 1023.07 1023.00 1022.55 1022.16 1022.20 1022.38 1022.96 1023.16 1023.47 1023.43 1023.53 1023.40 1023.15 1022.81 1022.47 1022.14 1021.88 1021.85 1022.23 1022.43 1022.67 1022.96 1023.00 1023.07 1023.12 1023.30 1023.59 1023.67 1023.27 1022.22 1022.12 1022.19 1022.37 1022.52 1022.35 1022.10 1021.79 1021.68 1021.70
1025.50 1025.17 1024.67 1024.40 1023.85 1023.70 1023.66 1023.36 1023.68 1024.27 1024.73 1025.43 1025.24 1025.21 1024.83 1024.39 1024.18 1024.07 1023.80 1023.51 1023.23 1022.90 1022.83 1022.83 1022.65 1022.94 1023.11 1023.21 1023.32 1023.25 1023.40 1023.40 1023.60 1022.83 1022.42 1022.06 1022.05 1022.00 1021.96 1022.07 1021.93 1021.63 1021.49
1025.93 1025.93 1025.28 1024.99 1025.01 1024.85 1024.86 1024.62 1024.86 1025.33 1025.88 1025.93 1025.67 1025.56 1025.56 1025.48 1025.25 1025.13 1024.76 1024.42 1024.03 1024.03 1024.19 1023.78 1023.48 1023.31 1023.18 1023.34 1023.35 1023.18 1023.30 1023.40 1023.54 1023.69 1022.72 1022.26 1021.95 1021.52 1021.48 1021.41 1021.32 1021.40 1021.15
1026.44 1026.22 1026.00 1026.03 1025.94 1025.81 1026.00 1025.83 1025.61 1026.18 1026.64 1026.41 1026.31 1026.11 1026.36 1026.42 1026.25 1026.23 1025.87 1025.60 1025.24 1024.82 1024.42 1024.34 1024.09 1024.18 1023.88 1023.56 1023.16 1023.20 1023.30 1023.22 1023.10 1023.21 1023.08 1022.31 1021.99 1021.25 1020.88 1020.98 1021.04 1020.66 1020.41
Thickness
5725 5726 5725 5722 5719 5715 5712 5709 5707 5705 5706 5707 5708 5709 5710 5710 5710 5711 5711 5710 5710 5709 5708 5709 5709 5710 5710 5711 5712 5713 5714 5716 5716 5716 5717 5717 5717 5717 5718 5719 5720 5720 5722
5733 5726 5724 5722 5719 5716 5711 5708 5706 5705 5706 5706 5706 5706 5707 5706 5706 5706 5706 5705 5705 5704 5704 5706 5706 5707 5707 5708 5708 5709 5710 5711 5711 5712 5712 5713 5713 5713 5714 5715 5716 5716 5718
5732 5726 5721 5719 5717 5715 5711 5708 5707 5707 5705 5704 5703 5703 5703 5702 5702 5702 5702 5701 5700 5700 5700 5702 5701 5702 5704 5704 5705 5706 5706 5707 5708 5709 5709 5707 5707 5709 5710 5711 5712 5712 5714
5732 5727 5722 5717 5714 5712 5710 5709 5707 5705 5703 5703 5703 5702 5701 5700 5699 5699 5699 5698 5696 5697 5696 5696 5696 5698 5698 5699 5701 5701 5700 5702 5703 5706 5705 5703 5703 5706 5707 5707 5707 5707 5708
5730 5728 5724 5719 5714 5712 5709 5707 5706 5705 5704 5702 5701 5700 5699 5699 5697 5696 5695 5693 5693 5693 5692 5693 5693 5694 5694 5696 5697 5697 5697 5697 5698 5700 5700 5700 5701 5701 5703 5703 5703 5702 5703
5728 5726 5724 5720 5716 5711 5708 5706 5704 5703 5702 5702 5701 5699 5699 5698 5696 5695 5693 5691 5690 5688 5687 5688 5689 5689 5690 5691 5692 5693 5693 5693 5693 5694 5695 5695 5698 5697 5698 5699 5698 5698 5698
5727 5725 5723 5720 5717 5713 5710 5707 5703 5702 5701 5700 5699 5699 5698 5696 5693 5692 5690 5689 5688 5686 5684 5684 5684 5685 5685 5686 5687 5688 5689 5689 5689 5689 5690 5691 5692 5692 5694 5695 5694 5694 5694
5728 5725 5722 5720 5718 5716 5713 5710 5706 5703 5700 5699 5697 5696 5694 5693 5690 5688 5686 5686 5685 5684 5682 5681 5681 5681 5681 5681 5682 5683 5684 5684 5684 5685 5685 5686 5687 5687 5687 5688 5688 5689 5688
5724 5722 5720 5718 5716 5714 5711 5709 5706 5703 5699 5697 5695 5693 5691 5689 5688 5686 5684 5683 5682 5680 5679 5678 5677 5677 5676 5676 5677 5678 5679 5679 5680 5680 5681 5681 5681 5681 5682 5682 5683 5683 5682
5720 5720 5718 5717 5714 5711 5709 5707 5704 5700 5698 5695 5693 5691 5688 5685 5683 5682 5680 5679 5678 5677 5675 5673 5671 5671 5671 5671 5672 5674 5674 5674 5675 5674 5675 5675 5676 5676 5677 5677 5679 5679 5677
5718 5718 5717 5714 5712 5710 5707 5704 5701 5698 5696 5693 5690 5688 5686 5683 5680 5679 5677 5675 5673 5671 5669 5668 5667 5667 5666 5665 5666 5667 5669 5669 5669 5669 5670 5671 5671 5671 5673 5672 5672 5674 5673
5712 5712 5711 5711 5710 5706 5703 5701 5698 5697 5694 5692 5690 5687 5685 5682 5678 5676 5673 5671 5669 5666 5664 5662 5660 5660 5660 5660 5662 5662 5663 5663 5664 5665 5665 5664 5666 5666 5668 5668 5668 5670 5669
5707 5709 5709 5706 5705 5704 5703 5699 5695 5692 5691 5689 5686 5684 5682 5679 5676 5671 5669 5665 5663 5662 5660 5658 5655 5653 5651 5652 5653 5655 5655 5656 5657 5657 5657 5658 5659 5660 5662 5663 5664 5666 5663
5694 5697 5700 5703 5704 5701 5698 5696 5693 5689 5685 5683 5681 5679 5677 5674 5670 5666 5663 5660 5658 5656 5654 5653 5651 5648 5645 5645 5645 5646 5647 5648 5648 5648 5650 5651 5653 5654 5656 5657 5657 5658 5658
5684 5686 5690 5695 5698 5699 5696 5691 5687 5684 5681 5677 5675 5671 5668 5668 5666 5661 5658 5655 5653 5650 5647 5645 5644 5644 5641 5640 5639 5638 5638 5639 5640 5641 5642 5642 5643 5646 5649 5651 5651 5652 5652
5672 5678 5682 5688 5694 5694 5691 5687 5683 5679 5676 5673 5670 5666 5664 5662 5660 5656 5652 5650 5647 5645 5641 5639 5636 5634 5633 5632 5632 5632 5632 5632 5633 5634 5635 5636 5638 5639 5641 5642 5644 5645 5644
5660 5665 5672 5679 5684 5688 5685 5680 5675 5673 5670 5666 5664 5662 5660 5657 5655 5652 5648 5642 5639 5640 5636 5631 5628 5627 5625 5623 5622 5623 5624 5625 5626 5628 5629 5630 5631 5632 5634 5635 5636 5636 5637
5650 5656 5660 5665 5671 5676 5674 5671 5667 5662 5659 5656 5655 5653 5652 5650 5647 5644 5641 5637 5634 5629 5630 5625 5621 5618 5616 5615 5614 5614 5614 5616 5618 5619 5620 5621 5621 5623 5626 5627 5628 5629 5629
5636 5643 5649 5653 5656 5659 5660 5657 5654 5650 5647 5645 5643 5641 5641 5640 5638 5636 5632 5629 5626 5622 5619 5617 5611 5608 5606 5603 5603 5604 5606 5607 5609 5611 5611 5611 5611 5613 5615 5616 5618 5620 5622
5624 5627 5632 5637 5642 5645 5644 5642 5637 5633 5629 5627 5625 5625 5626 5625 5624 5623 5621 5619 5616 5612 5608 5606 5603 5598 5594 5593 5592 5593 5594 5596 5599 5600 5601 5602 5603 5604 5605 5606 5608 5610 5612
5613 5618 5618 5621 5621 5627 5630 5625 5620 5613 5609 5607 5606 5605 5606 5606 5607 5606 5603 5602 5600 5600 5598 5594 5589 5587 5584 5580 5577 5580 5584 5588 5590 5591 5592 5593 5594 5595 5595 5595 5597 5599 5602
5593 5596 5599 5601 5605 5606 5605 5602 5598 5595 5590 5587 5586 5585 5584 5584 5585 5586 5586 5585 5583 5580 5577 5576 5575 5572 5570 5568 5566 5561 5567 5576 5580 5583 5582 5582 5583 5582 5584 5586 5587 5588 5589
5580 5582 5585 5585 5584 5582 5584 5585 5583 5580 5574 5571 5566 5566 5563 5562 5562 5563 5564 5564 5565 5565 5561 5559 5556 5555 5556 5554 5552 5554 5552 5551 5554 5566 5567 5568 5568 5568 5569 5572 5576 5578 5578
5561 5562 5565 5564 5567 5567 5563 5563 5559 5552 5547 5539 5540 5538 5539 5542 5541 5539 5540 5542 5542 5543 5543 5541 5542 5541 5539 5540 5537 5537 5535 5537 5541 5549 5551 5554 5556 5558 5560 5560 5561 5565 5568
5545 5542 5545 5546 5544 5543 5541 5541 5537 5531 5525 5523 5524 5522 5519 5518 5518 5517 5518 5519 5522 5521 5519 5522 5523 5522 5523 5524 5523 5524 5521 5519 5519 5522 5540 5538 5541 5546 5549 5551 5552 5554 5557
5524 5525 5524 5523 5522 5522 5519 5518 5519 5512 5505 5504 5503 5503 5498 5494 5493 5492 5493 5494 5495 5498 5502 5501 5503 5502 5504 5505 5508 5507 5508 5509 5508 5507 5509 5525 5527 5534 5539 5541 5542 5545 5549